Date String (YYYY-MM-DD hh:mm:ss) UTC,Instrument flags,Ambient pressure (hPa),Sample flow (lpm),Bypass flow (lpm),Sample temperature (°C),Ambient temperature (°C),ASC tube jacket temperature (°C),LED temperature (°C),Box temperature (°C),Sample RH (%),Span deviation,Mass concentration (μg/m³),Mass concentration (μg/m³),Mass concentration (μg/m³)
DateTimeUTC,F1_M11,P_M11,Q1_M11,Q2_M11,T1_M11,T2_M11,T3_M11,T4_M11,T5_M11,U1_M11,ZSPAN_M11,X0_M11,X2_M11,X1_M11
2022-06-13 03:00:00,,0817.3,5.00,0.00,29.1,28.0,00.0,37.9,31.1,20.1,0000.0,0012.86,0005.36,0004.36
2022-06-13 03:01:00,,0817.4,5.00,0.00,29.1,28.2,00.0,37.9,31.1,20.3,0000.0,0014.15,0005.38,0004.36
2022-06-13 03:02:00,,0817.4,5.00,0.00,29.2,28.3,00.0,37.9,31.2,20.7,0000.0,0014.06,0005.40,0004.35
2022-06-13 03:03:00,,0817.3,5.01,0.00,29.2,28.0,00.0,37.9,31.1,20.6,0000.0,0014.04,0005.44,0004.35
2022-06-13 03:04:00,,0817.4,5.00,0.00,29.1,27.3,00.0,37.9,31.0,19.9,0000.0,0014.00,0005.49,0004.35
2022-06-13 03:05:00,,0817.4,4.99,0.00,29.1,27.2,00.0,37.8,30.9,19.9,0000.0,0014.42,0005.55,0004.35
2022-06-13 03:06:00,,0817.4,5.01,0.00,29.0,27.2,00.0,37.8,30.8,19.7,0000.0,0014.63,0005.55,0004.34
2022-06-13 03:07:00,,0817.4,5.00,0.00,29.0,27.3,00.0,37.8,30.8,19.8,0000.0,0014.04,0005.56,0004.33
2022-06-13 03:08:00,,0817.4,5.00,0.00,29.0,27.4,00.0,37.8,30.8,19.7,0000.0,0014.16,0005.56,0004.33
2022-06-13 03:09:00,,0817.4,5.00,0.00,29.0,27.6,00.0,37.9,30.9,19.7,0000.0,0014.31,0005.57,0004.31
2022-06-13 03:10:00,,0817.4,5.01,0.00,29.0,27.7,00.0,37.9,31.0,20.1,0000.0,0014.15,0005.58,0004.30
2022-06-13 03:11:00,,0817.5,5.00,0.00,29.0,27.9,00.0,37.9,31.0,20.0,0000.0,0013.54,0005.59,0004.29
2022-06-13 03:12:00,,0817.5,4.99,0.00,29.1,28.0,00.0,37.9,31.1,19.9,0000.0,0012.32,0005.59,0004.29
2022-06-13 03:13:00,,0817.5,4.99,0.00,29.1,28.1,00.0,37.9,31.1,19.9,0000.0,0012.22,0005.50,0004.29
2022-06-13 03:14:00,,0817.5,5.00,0.00,29.1,28.2,00.0,37.9,31.1,19.8,0000.0,0012.26,0005.43,0004.28
2022-06-13 03:15:00,,0817.6,5.00,0.00,29.2,28.3,00.0,38.0,31.2,19.7,0000.0,0012.10,0005.35,0004.27
2022-06-13 03:16:00,,0817.6,5.00,0.00,29.2,27.8,00.0,37.9,31.1,19.8,0000.0,0011.61,0005.34,0004.27
2022-06-13 03:17:00,,0817.5,5.01,0.00,29.1,27.3,00.0,37.9,30.9,20.7,0000.0,0011.27,0005.38,0004.28
2022-06-13 03:18:00,,0817.5,5.00,0.00,29.1,27.1,00.0,37.9,30.9,20.4,0000.0,0011.30,0005.36,0004.29
2022-06-13 03:19:00,,0817.6,5.00,0.00,29.0,27.2,00.0,37.9,30.8,20.3,0000.0,0011.15,0005.33,0004.30
2022-06-13 03:20:00,,0817.5,4.99,0.00,29.0,27.3,00.0,37.9,30.8,20.3,0000.0,0010.86,0005.34,0004.31
2022-06-13 03:21:00,,0817.4,5.00,0.00,29.0,27.4,00.0,37.9,30.9,20.3,0000.0,0010.71,0005.36,0004.31
2022-06-13 03:22:00,,0817.5,4.99,0.00,29.0,27.6,00.0,37.9,30.9,19.9,0000.0,0011.04,0005.34,0004.31
2022-06-13 03:23:00,,0817.5,5.00,0.00,29.0,27.7,00.0,37.9,31.0,19.7,0000.0,0011.03,0005.31,0004.30
2022-06-13 03:24:00,,0817.6,5.01,0.00,29.1,27.9,00.0,37.9,31.0,19.7,0000.0,0011.01,0005.36,0004.30
2022-06-13 03:25:00,,0817.6,5.00,0.00,29.1,28.0,00.0,37.9,31.1,19.8,0000.0,0011.39,0005.34,0004.29
2022-06-13 03:26:00,,0817.5,5.00,0.00,29.1,28.1,00.0,37.9,31.1,19.9,0000.0,0011.27,0005.34,0004.30
2022-06-13 03:27:00,,0817.5,5.00,0.00,29.2,28.2,00.0,37.9,31.2,19.8,0000.0,0010.95,0005.30,0004.31
2022-06-13 03:28:00,,0817.5,5.00,0.00,29.2,28.3,00.0,38.0,31.2,19.7,0000.0,0010.82,0005.26,0004.32
2022-06-13 03:29:00,,0817.5,5.00,0.00,29.2,28.1,00.0,38.0,31.2,19.6,0000.0,0010.83,0005.24,0004.31
2022-06-13 03:30:00,,0817.5,4.99,0.00,29.2,27.5,00.0,37.9,31.0,19.6,0000.0,0010.88,0005.24,0004.30
2022-06-13 03:31:00,,0817.5,5.01,0.00,29.1,27.2,00.0,37.9,30.9,19.8,0000.0,0010.83,0005.19,0004.31
2022-06-13 03:32:00,,0817.5,5.00,0.00,29.1,27.2,00.0,37.9,30.8,19.6,0000.0,0010.70,0005.15,0004.31
2022-06-13 03:33:00,,0817.5,5.00,0.00,29.0,27.3,00.0,37.9,30.8,19.6,0000.0,0010.64,0005.16,0004.33
2022-06-13 03:34:00,,0817.5,5.00,0.00,29.0,27.4,00.0,37.9,30.9,19.7,0000.0,0010.82,0005.19,0004.35
2022-06-13 03:35:00,,0817.5,5.01,0.00,29.0,27.6,00.0,37.9,30.9,20.1,0000.0,0010.59,0005.15,0004.36
2022-06-13 03:36:00,,0817.5,5.01,0.00,29.0,27.7,00.0,37.9,31.0,19.7,0000.0,0010.17,0005.19,0004.37
2022-06-13 03:37:00,,0817.4,4.99,0.00,29.1,27.8,00.0,37.9,31.0,19.5,0000.0,0010.37,0005.25,0004.37
2022-06-13 03:38:00,,0817.5,5.00,0.00,29.1,27.9,00.0,37.9,31.0,19.5,0000.0,0010.36,0005.26,0004.37
2022-06-13 03:39:00,,0817.5,4.99,0.00,29.1,28.1,00.0,37.9,31.1,19.7,0000.0,0010.78,0005.27,0004.38
2022-06-13 03:40:00,,0817.5,5.00,0.00,29.1,28.2,00.0,38.0,31.1,19.5,0000.0,0010.65,0005.24,0004.37
2022-06-13 03:41:00,,0817.5,5.00,0.00,29.2,28.3,00.0,38.0,31.2,19.6,0000.0,0010.56,0005.24,0004.38
2022-06-13 03:42:00,,0817.4,4.99,0.00,29.2,28.3,00.0,38.0,31.2,19.5,0000.0,0010.79,0005.28,0004.38
2022-06-13 03:43:00,,0817.4,4.99,0.00,29.3,28.4,00.0,38.0,31.2,19.6,0000.0,0010.88,0005.31,0004.39
2022-06-13 03:44:00,,0817.4,5.00,0.00,29.2,27.8,00.0,38.0,31.1,19.6,0000.0,0010.89,0005.33,0004.40
2022-06-13 03:45:00,,0817.4,5.01,0.00,29.2,27.3,00.0,37.9,31.0,19.6,0000.0,0010.89,0005.32,0004.42
2022-06-13 03:46:00,,0817.4,4.99,0.00,29.1,27.2,00.0,37.9,30.9,19.7,0000.0,0010.89,0005.34,0004.44
2022-06-13 03:47:00,,0817.4,4.99,0.00,29.1,27.2,00.0,37.9,30.9,19.7,0000.0,0010.84,0005.35,0004.46
2022-06-13 03:48:00,,0817.3,5.01,0.00,29.0,27.3,00.0,37.9,30.9,19.7,0000.0,0011.38,0005.34,0004.48
2022-06-13 03:49:00,,0817.4,5.01,0.00,29.0,27.5,00.0,37.9,30.9,19.5,0000.0,0012.33,0005.36,0004.50
2022-06-13 03:50:00,,0817.3,5.00,0.00,29.0,27.6,00.0,37.9,30.9,19.5,0000.0,0012.28,0005.38,0004.51
2022-06-13 03:51:00,,0817.2,5.00,0.00,29.1,27.7,00.0,37.9,31.0,19.5,0000.0,0012.27,0005.47,0004.53
2022-06-13 03:52:00,,0817.3,5.00,0.00,29.1,27.9,00.0,37.9,31.0,19.2,0000.0,0013.40,0005.55,0004.57
2022-06-13 03:53:00,,0817.3,5.00,0.00,29.1,28.0,00.0,38.0,31.1,18.9,0000.0,0013.33,0005.59,0004.59
2022-06-13 03:54:00,,0817.3,5.00,0.00,29.1,28.1,00.0,38.0,31.1,18.8,0000.0,0013.39,0005.57,0004.61
2022-06-13 03:55:00,,0817.4,5.00,0.00,29.2,28.2,00.0,38.0,31.1,18.4,0000.0,0013.81,0005.58,0004.61
2022-06-13 03:56:00,,0817.3,5.00,0.00,29.2,28.3,00.0,38.0,31.2,18.1,0000.0,0014.04,0005.59,0004.60
2022-06-13 03:57:00,,0817.3,4.99,0.00,29.2,28.3,00.0,38.0,31.2,18.1,0000.0,0014.36,0005.58,0004.60
2022-06-13 03:58:00,,0817.4,5.00,0.00,29.3,28.4,00.0,38.0,31.3,17.4,0000.0,0014.97,0005.61,0004.60
2022-06-13 03:59:00,,0817.4,5.00,0.00,29.3,28.5,00.0,38.1,31.3,17.0,0000.0,0014.39,0005.60,0004.59
